• In Belarus
  • List of Countries
  • For 7 days
  • Water Temperature
  • Weather Map
  • Weather Widgets
  • user-avatar
    Login

    Hourly Weather Pecs

    Today, 22 October, Tuesday

    Time Temperature Precipitation Wind Pressure Humidity
    00:00 +19°C° 0 mm 1 mps 747 mmHg 60%
    01:00 +19°C° 0 mm 1 mps 747 mmHg 62%
    02:00 +18°C° 0 mm 1 mps 747 mmHg 64%
    03:00 +18°C° 0 mm 1 mps 747 mmHg 65%
    04:00 +18°C° 0 mm 1 mps 747 mmHg 67%
    05:00 +18°C° 0 mm 1 mps 747 mmHg 67%
    06:00 +18°C° 0 mm 1 mps 747 mmHg 67%
    07:00 +18°C° 0 mm 1 mps 748 mmHg 67%
    08:00 +20°C° 0 mm 1 mps 748 mmHg 59%
    09:00 +22°C° 0 mm 1 mps 748 mmHg 52%
    10:00 +25°C° 0 mm 1 mps 748 mmHg 45%
    11:00 +26°C° 0 mm 1 mps 748 mmHg 42%
    12:00 +27°C° 0 mm 1 mps 748 mmHg 38%
    13:00 +28°C° 0 mm 1 mps 748 mmHg 35%
    14:00 +27°C° 0 mm 1 mps 747 mmHg 37%
    15:00 +26°C° 0 mm 1 mps 747 mmHg 39%
    16:00 +26°C° 0 mm 1 mps 747 mmHg 41%
    17:00 +24°C° 0 mm 1 mps 747 mmHg 44%
    18:00 +23°C° 0 mm 1 mps 747 mmHg 47%
    19:00 +21°C° 0 mm 1 mps 747 mmHg 50%
    20:00 +21°C° 0 mm 1 mps 747 mmHg 52%
    21:00 +20°C° 0 mm 1 mps 747 mmHg 53%
    22:00 +20°C° 0 mm 1 mps 747 mmHg 55%
    23:00 +19°C° 0 mm 1 mps 747 mmHg 56%

    Tomorrow, 23 October, Wednesday

    Time Temperature Precipitation Wind Pressure Humidity
    00:00 +19°C° 0 mm 1 mps 747 mmHg 57%
    01:00 +18°C° 0 mm 1 mps 747 mmHg 58%
    02:00 +18°C° 0 mm 1 mps 747 mmHg 59%
    03:00 +18°C° 0 mm 1 mps 746 mmHg 60%
    04:00 +16°C° 0 mm 1 mps 746 mmHg 62%
    05:00 +16°C° 0 mm 1 mps 746 mmHg 63%
    06:00 +16°C° 0 mm 1 mps 746 mmHg 64%
    07:00 +16°C° 0 mm 1 mps 746 mmHg 65%
    08:00 +19°C° 0 mm 1 mps 746 mmHg 58%
    09:00 +20°C° 0 mm 2 mps 746 mmHg 52%
    10:00 +21°C° 0 mm 2 mps 746 mmHg 45%
    11:00 +24°C° 0 mm 2 mps 746 mmHg 41%
    12:00 +25°C° 0 mm 2 mps 746 mmHg 38%
    13:00 +26°C° 0 mm 2 mps 745 mmHg 34%
    14:00 +25°C° 0 mm 2 mps 745 mmHg 36%
    15:00 +25°C° 0 mm 2 mps 745 mmHg 38%
    16:00 +24°C° 0 mm 2 mps 744 mmHg 41%
    17:00 +23°C° 0 mm 1 mps 744 mmHg 44%
    18:00 +21°C° 0 mm 1 mps 744 mmHg 47%
    19:00 +20°C° 0 mm 1 mps 744 mmHg 50%
    20:00 +19°C° 0 mm 1 mps 744 mmHg 52%
    21:00 +19°C° 0 mm 1 mps 744 mmHg 54%
    22:00 +18°C° 0 mm 1 mps 744 mmHg 56%
    23:00 +18°C° 0 mm 1 mps 744 mmHg 58%

    Day after tomorrow, 24 October, Thursday

    Time Temperature Precipitation Wind Pressure Humidity
    00:00 +16°C° 0 mm 1 mps 744 mmHg 60%
    01:00 +16°C° 0 mm 1 mps 744 mmHg 62%
    02:00 +15°C° 0 mm 1 mps 744 mmHg 63%
    03:00 +15°C° 0 mm 1 mps 743 mmHg 64%
    04:00 +15°C° 0 mm 1 mps 743 mmHg 65%
    05:00 +15°C° 0 mm 1 mps 743 mmHg 65%
    06:00 +15°C° 0 mm 1 mps 743 mmHg 65%
    07:00 +15°C° 0 mm 1 mps 743 mmHg 66%
    08:00 +18°C° 0 mm 1 mps 743 mmHg 58%
    09:00 +20°C° 0 mm 1 mps 743 mmHg 51%
    10:00 +23°C° 0 mm 1 mps 743 mmHg 43%
    11:00 +24°C° 0 mm 2 mps 743 mmHg 40%
    12:00 +25°C° 0 mm 2 mps 742 mmHg 36%
    13:00 +27°C° 0 mm 2 mps 742 mmHg 33%
    14:00 +26°C° 0 mm 2 mps 742 mmHg 36%
    15:00 +25°C° 0 mm 2 mps 741 mmHg 38%
    16:00 +24°C° 0 mm 1 mps 741 mmHg 41%
    17:00 +23°C° 0 mm 1 mps 741 mmHg 45%
    18:00 +21°C° 0 mm 1 mps 741 mmHg 48%
    19:00 +20°C° 0 mm 1 mps 741 mmHg 52%
    20:00 +19°C° 0 mm 1 mps 741 mmHg 54%
    21:00 +19°C° 0 mm 1 mps 742 mmHg 55%
    22:00 +18°C° 0 mm 1 mps 742 mmHg 56%
    23:00 +18°C° 0 mm 1 mps 742 mmHg 57%

    25 October, Friday

    Time Temperature Precipitation Wind Pressure Humidity
    00:00 +16°C° 0 mm 1 mps 742 mmHg 58%
    01:00 +16°C° 0 mm 1 mps 742 mmHg 60%
    02:00 +16°C° 0 mm 1 mps 742 mmHg 60%
    03:00 +15°C° 0 mm 1 mps 742 mmHg 60%
    04:00 +15°C° 0 mm 1 mps 743 mmHg 60%
    05:00 +15°C° 0 mm 1 mps 743 mmHg 62%
    06:00 +14°C° 0 mm 1 mps 743 mmHg 64%
    07:00 +14°C° 0 mm 1 mps 744 mmHg 65%
    08:00 +16°C° 0 mm 2 mps 744 mmHg 59%
    09:00 +18°C° 0 mm 2 mps 745 mmHg 53%
    10:00 +20°C° 0 mm 2 mps 745 mmHg 47%
    11:00 +21°C° 0 mm 3 mps 745 mmHg 46%
    12:00 +22°C° 0 mm 3 mps 745 mmHg 45%
    13:00 +24°C° 0 mm 3 mps 745 mmHg 44%
    14:00 +22°C° 0 mm 3 mps 745 mmHg 48%
    15:00 +21°C° 0 mm 2 mps 745 mmHg 52%
    16:00 +21°C° 0 mm 2 mps 745 mmHg 55%
    17:00 +19°C° 0 mm 2 mps 745 mmHg 61%
    18:00 +19°C° 0 mm 1 mps 745 mmHg 66%
    19:00 +16°C° 0 mm 1 mps 746 mmHg 71%
    20:00 +16°C° 0 mm 1 mps 746 mmHg 74%
    21:00 +15°C° 0 mm 1 mps 746 mmHg 76%
    22:00 +15°C° 0 mm 1 mps 746 mmHg 78%
    23:00 +14°C° 0 mm 1 mps 746 mmHg 80%

    26 October, Saturday

    Time Temperature Precipitation Wind Pressure Humidity
    00:00 +14°C° 0 mm 1 mps 746 mmHg 81%
    01:00 +13°C° 0 mm 0 mps 746 mmHg 83%
    02:00 +12°C° 0 mm 0 mps 746 mmHg 84%
    03:00 +12°C° 0 mm 0 mps 746 mmHg 85%
    04:00 +12°C° 0 mm 0 mps 745 mmHg 86%
    05:00 +12°C° 0 mm 0 mps 746 mmHg 85%
    06:00 +12°C° 0 mm 0 mps 746 mmHg 85%
    07:00 +13°C° 0 mm 1 mps 746 mmHg 85%
    08:00 +15°C° 0 mm 1 mps 746 mmHg 76%
    09:00 +18°C° 0 mm 1 mps 746 mmHg 67%
    10:00 +20°C° 0 mm 1 mps 747 mmHg 58%
    11:00 +21°C° 0 mm 1 mps 746 mmHg 53%
    12:00 +22°C° 0 mm 1 mps 746 mmHg 49%
    13:00 +24°C° 0 mm 1 mps 745 mmHg 44%
    14:00 +23°C° 0 mm 1 mps 745 mmHg 46%
    15:00 +22°C° 0 mm 1 mps 745 mmHg 48%
    16:00 +22°C° 0 mm 1 mps 744 mmHg 50%
    17:00 +20°C° 0 mm 1 mps 744 mmHg 55%
    18:00 +19°C° 0 mm 1 mps 744 mmHg 59%
    19:00 +16°C° 0 mm 1 mps 744 mmHg 64%
    20:00 +16°C° 0 mm 1 mps 744 mmHg 66%
    21:00 +15°C° 0 mm 1 mps 745 mmHg 68%
    22:00 +15°C° 0 mm 1 mps 745 mmHg 70%
    23:00 +15°C° 0 mm 1 mps 744 mmHg 72%

    27 October, Sunday

    Time Temperature Precipitation Wind Pressure Humidity
    00:00 +14°C° 0 mm 1 mps 744 mmHg 74%
    01:00 +14°C° 0 mm 1 mps 744 mmHg 75%
    02:00 +14°C° 0 mm 1 mps 744 mmHg 76%
    03:00 +13°C° 0 mm 1 mps 744 mmHg 76%
    04:00 +13°C° 0 mm 1 mps 744 mmHg 76%
    05:00 +13°C° 0 mm 1 mps 744 mmHg 76%
    06:00 +13°C° 0 mm 1 mps 744 mmHg 75%
    07:00 +13°C° 0 mm 1 mps 744 mmHg 75%
    08:00 +15°C° 0 mm 2 mps 744 mmHg 65%
    09:00 +18°C° 0 mm 2 mps 744 mmHg 55%
    10:00 +20°C° 0 mm 2 mps 744 mmHg 45%
    11:00 +21°C° 0 mm 3 mps 744 mmHg 43%
    12:00 +22°C° 0 mm 3 mps 743 mmHg 40%
    13:00 +23°C° 0 mm 4 mps 743 mmHg 37%
    14:00 +22°C° 0 mm 3 mps 743 mmHg 42%
    15:00 +21°C° 0 mm 3 mps 743 mmHg 46%
    16:00 +21°C° 0 mm 3 mps 742 mmHg 51%
    17:00 +19°C° 0 mm 2 mps 743 mmHg 57%
    18:00 +18°C° 0 mm 2 mps 743 mmHg 63%
    19:00 +18°C° 0 mm 1 mps 743 mmHg 69%
    20:00 +16°C° 0 mm 1 mps 744 mmHg 70%
    21:00 +16°C° 0 mm 1 mps 744 mmHg 71%
    22:00 +15°C° 0 mm 1 mps 744 mmHg 73%
    23:00 +15°C° 0 mm 1 mps 744 mmHg 73%

    28 October, Monday

    Time Temperature Precipitation Wind Pressure Humidity
    00:00 +13°C° 0 mm 0 mps 744 mmHg 73%
    01:00 +13°C° 0 mm 0 mps 744 mmHg 74%
    02:00 +13°C° 0 mm 0 mps 744 mmHg 74%
    03:00 +13°C° 0 mm 0 mps 744 mmHg 74%
    04:00 +12°C° 0 mm 0 mps 744 mmHg 75%
    05:00 +12°C° 0 mm 0 mps 744 mmHg 74%
    06:00 +13°C° 0 mm 0 mps 744 mmHg 73%
    07:00 +13°C° 0 mm 0 mps 744 mmHg 73%
    08:00 +15°C° 0 mm 1 mps 744 mmHg 66%
    09:00 +18°C° 0 mm 1 mps 744 mmHg 60%
    10:00 +19°C° 0 mm 1 mps 744 mmHg 54%
    11:00 +19°C° 0 mm 1 mps 744 mmHg 53%
    12:00 +20°C° 0 mm 1 mps 744 mmHg 52%
    13:00 +19°C° 0 mm 2 mps 744 mmHg 51%
    14:00 +18°C° 0 mm 2 mps 743 mmHg 55%
    15:00 +17°C° 0 mm 2 mps 743 mmHg 59%
    16:00 +16°C° 0 mm 2 mps 743 mmHg 63%
    17:00 +15°C° 0 mm 2 mps 743 mmHg 66%
    18:00 +14°C° 0 mm 3 mps 743 mmHg 69%
    19:00 +13°C° 0 mm 3 mps 743 mmHg 72%
    20:00 +14°C° 0.3 mm 2 mps 743 mmHg 77%
    21:00 +13°C° 0.3 mm 2 mps 743 mmHg 82%
    22:00 +13°C° 0.3 mm 1 mps 743 mmHg 86%
    23:00 +13°C° 0.2 mm 1 mps 743 mmHg 87%
    Show more